Vertical_Velocity
-1 -1 -1 1 -1 -2 -1 -1 -0 0 -2 -2 -0 -2 0 -1 1 -2 -1 -0 -1 -1 -3 -1 -1 -0 -1 -2 -1 -1 -1 -2 -1
-1 -2 -1 0 -2 -2 -0 -0 0 -0 -1 -2 0 -0 -1 -0 -1 -1 -1 -1 -2 -1 -0 -1 -1 -1 -1 -1 -1 -1 -2 -1 -1
-1 -1 -1 -1 -1 -2 1 -1 0 -1 -1 -0 -0 -1 -0 0 -1 -1 -0 -1 -3 -1 -1 0 -1 -1 -1 -1 -1 -1 -1 -1 -1
-1 -1 -1 -0 -1 -1 1 -0 -0 0 0 0 -1 0 0 -0 1 0 1 -0 -0 -1 0 0 -0 -0 -1 -1 -1 -1 -1 -0 -1
-1 -1 -2 -0 -0 -2 1 1 0 -1 -1 -0 -1 -0 1 0 0 1 -0 -0 1 -1 -1 1 -2 -0 -0 -0 -1 -0 -0 -2 -0
-1 -0 -1 -1 -0 -4 1 1 -0 -1 -2 -0 0 -0 1 -1 -1 -1 -0 -0 -1 -2 -1 0 -1 -1 -1 -1 -1 -1 -1 0 -0
-0 -1 -1 -2 -1 -2 -2 4 -1 -0 -2 -1 -1 0 0 -0 0 0 -1 -1 -0 -0 -0 0 -2 -1 -1 -1 -1 -1 -0 -0 0
-1 -1 -1 -1 -1 0 -2 -1 1 -1 -1 -1 -1 -1 -1 -0 -0 -1 -1 -0 -1 -1 -0 -0 -2 -0 -1 -1 -1 -2 -1 -1 -1
1 -0 0 -1 -1 0 -4 2 0 1 -0 -1 -0 -1 1 -1 -1 -0 -1 -0 -0 0 -1 -0 -0 -0 -1 -2 -1 -1 -1 -1 -1
1 -0 0 -0 -0 -1 -2 2 0 1 -0 -1 -1 -1 0 -1 0 -1 -0 -0 -0 -1 -1 -1 0 -0 -1 -1 -1 -1 -1 -2 -2
-0 1 1 0 1 -1 -0 -1 1 0 -0 1 0 0 0 0 -0 -0 -1 0 0 -0 -0 -0 -1 -1 -1 -1 0 -1 -1 -1 -1
-0 0 0 -0 1 -2 2 -1 2 -1 -0 1 -0 0 0 -0 0 -0 -0 -0 -1 -1 -1 -1 -0 -2 -2 -2 -2 -1 -1 -1 -1
-2 0 -0 0 1 -2 -0 0 2 0 -0 2 1 1 1 0 0 0 -0 -0 -1 -0 0 0 -0 -1 -1 -1 -1 1 -0 -1 -2
1 1 -1 -1 1 -1 -1 -2 -1 -0 1 0 0 -1 -0 1 0 0 -0 0 -0 -1 0 -0 -0 -0 -2 -1 -1 1 -0 -1 -2
-1 -0 0 -0 1 -0 -1 -1 -1 -2 1 -0 0 0 -1 -0 0 -1 -1 -0 0 0 -1 -1 0 -0 -1 -0 -1 1 0 -0 -1
1 -0 0 1 4 1 0 0 0 -1 -1 2 -0 0 -1 -1 -1 -0 -0 -1 -1 -1 -1 -2 -1 -1 -2 -1 -3 -0 -2 -1 -1
2 2 2 0 -0 -1 0 1 1 -2 -1 0 1 -2 -1 -1 -0 -0 1 -2 -2 -1 -1 -2 -1 -2 -2 -2 -3 -1 -1 -1 -2
1 1 1 0 -0 3 0 1 -0 1 -1 -4 3 -1 -0 0 -0 -0 -0 -1 0 -1 -1 -1 -1 -2 -1 -1 -2 -0 -0 -1 -2
-0 2 2 0 1 -0 3 -0 2 0 5 0 -1 0 1 1 -1 -1 -0 -1 -0 -2 -1 -1 -1 -2 -2 -3 -2 -0 -1 -0 -1
-0 1 -1 -1 -2 -1 1 -1 -1 -1 -1 0 -1 -1 -2 0 1 -1 0 -2 -1 0 -2 -2 1 -0 -1 -4 -2 -1 -1 0 -1
Height
3176 3177 3178 3180 3181 3183 3184 3186 3188 3189 3190 3191 3192 3192 3193 3193 3194 3195 3196 3196 3196 3196 3195 3195 3195 3195 3195 3194 3193 3192 3191 3190 3188
3177 3178 3179 3181 3182 3184 3186 3187 3189 3191 3192 3193 3194 3194 3194 3195 3196 3197 3198 3198 3198 3198 3198 3197 3197 3197 3197 3196 3196 3195 3194 3192 3191
3177 3179 3180 3182 3184 3185 3188 3189 3191 3192 3193 3195 3195 3196 3196 3197 3198 3199 3199 3200 3199 3199 3200 3200 3200 3199 3199 3198 3197 3197 3196 3195 3194
3178 3180 3181 3183 3185 3186 3189 3191 3192 3193 3195 3196 3197 3198 3199 3199 3201 3201 3202 3201 3201 3201 3202 3202 3201 3201 3200 3200 3199 3199 3198 3197 3195
3179 3180 3182 3183 3186 3187 3190 3192 3194 3195 3196 3198 3198 3199 3200 3201 3202 3203 3203 3203 3203 3203 3203 3204 3203 3203 3202 3201 3201 3200 3199 3198 3197
3179 3180 3182 3184 3186 3187 3191 3193 3195 3196 3197 3199 3200 3201 3202 3202 3203 3204 3204 3205 3205 3204 3205 3205 3204 3204 3203 3203 3202 3201 3200 3199 3198
3178 3180 3183 3184 3186 3188 3190 3194 3196 3197 3198 3200 3201 3202 3203 3204 3205 3205 3206 3206 3206 3206 3206 3206 3205 3205 3204 3203 3203 3202 3201 3200 3199
3177 3180 3182 3184 3187 3189 3191 3193 3197 3198 3199 3200 3202 3202 3204 3204 3205 3206 3207 3207 3207 3207 3207 3207 3206 3206 3205 3204 3204 3203 3203 3201 3200
3177 3179 3182 3185 3187 3189 3191 3193 3197 3199 3200 3201 3202 3203 3204 3205 3206 3206 3207 3207 3208 3208 3208 3208 3208 3207 3206 3205 3204 3204 3203 3202 3201
3177 3179 3181 3185 3187 3190 3191 3194 3197 3199 3201 3202 3203 3204 3205 3206 3207 3207 3208 3208 3208 3209 3209 3209 3208 3208 3207 3206 3206 3205 3204 3203 3202
3175 3178 3180 3183 3186 3189 3191 3193 3196 3199 3201 3202 3203 3204 3206 3207 3207 3208 3208 3209 3209 3209 3209 3209 3209 3209 3208 3207 3207 3206 3205 3204 3203
3173 3176 3179 3182 3185 3188 3190 3193 3195 3198 3200 3201 3203 3204 3205 3206 3207 3208 3208 3209 3209 3210 3210 3209 3209 3209 3209 3208 3207 3206 3206 3204 3203
3171 3175 3178 3181 3183 3186 3189 3192 3194 3197 3199 3201 3202 3204 3205 3206 3207 3208 3208 3209 3209 3210 3210 3210 3210 3210 3209 3208 3207 3206 3206 3205 3204
3170 3172 3175 3178 3182 3184 3187 3190 3192 3195 3197 3199 3201 3203 3204 3206 3207 3208 3209 3209 3210 3210 3210 3210 3210 3210 3210 3209 3208 3207 3206 3205 3204
3167 3170 3173 3176 3179 3182 3184 3187 3190 3192 3195 3197 3200 3202 3203 3205 3206 3208 3209 3209 3209 3210 3210 3210 3210 3210 3210 3209 3208 3208 3207 3206 3205
3164 3168 3171 3174 3177 3180 3183 3185 3188 3191 3193 3196 3198 3200 3202 3204 3205 3207 3208 3208 3209 3209 3209 3210 3210 3210 3210 3209 3208 3207 3207 3206 3204
3162 3165 3169 3172 3175 3178 3181 3184 3187 3189 3192 3195 3197 3199 3202 3203 3204 3205 3206 3207 3208 3208 3208 3209 3209 3209 3209 3208 3207 3206 3205 3204 3202
3159 3162 3166 3170 3173 3177 3180 3183 3186 3189 3191 3193 3197 3198 3200 3201 3203 3204 3205 3206 3207 3207 3207 3208 3208 3207 3207 3207 3206 3205 3204 3203 3201
3155 3159 3163 3167 3170 3174 3177 3180 3184 3188 3191 3193 3195 3197 3199 3200 3202 3203 3204 3204 3205 3206 3206 3206 3207 3206 3206 3206 3205 3204 3203 3201 3200
3150 3155 3159 3164 3167 3171 3175 3178 3182 3185 3188 3191 3194 3196 3197 3198 3200 3201 3202 3203 3202 3204 3204 3204 3204 3205 3205 3205 3203 3202 3201 3200 3199